,,Stat5,,Stat1,,Stat2,,Stat3,,Stat4,,Wind1,,Wind1,
time,status,PA1M_AVG,status,PR1M_SUM,status,RH1M_AVG,status,SR1M_AVG,status,TA1M_AVG,status,W1dAve1m,status,W1sAve1m,
2003-01-28, 00:00:00,VALID,918.122,VALID,0,VALID,97.8601,VALID,0,VALID,19.5448,VALID,31,VALID,0.996652,
2003-01-28, 00:01:00,VALID,918.123,VALID,0,VALID,98.1081,VALID,0,VALID,19.5282,VALID,29,VALID,1.06719,
2003-01-28, 00:02:00,VALID,918.124,VALID,0,VALID,98.2925,VALID,-0.0169808,VALID,19.5413,VALID,30,VALID,0.926398,
2003-01-28, 00:03:00,VALID,918.104,VALID,0,VALID,98.3294,VALID,0,VALID,19.5254,VALID,21,VALID,0.916324,
2003-01-28, 00:04:00,VALID,918.052,VALID,0,VALID,98.398,VALID,0,VALID,19.4991,VALID,25,VALID,0.841947,
2003-01-28, 00:05:00,VALID,918.029,VALID,0,VALID,98.4425,VALID,-0.0339617,VALID,19.4834,VALID,17,VALID,0.761924,
2003-01-28, 00:06:00,VALID,917.999,VALID,0,VALID,98.4781,VALID,-0.0169808,VALID,19.464,VALID,5,VALID,0.854235,
2003-01-28, 00:07:00,VALID,917.971,VALID,0,VALID,98.5735,VALID,0,VALID,19.4675,VALID,360,VALID,1.00601,
2003-01-28, 00:08:00,VALID,917.971,VALID,0,VALID,98.6816,VALID,0,VALID,19.4499,VALID,3,VALID,0.833534,
2003-01-28, 00:09:00,VALID,917.978,VALID,0,VALID,98.7426,VALID,0,VALID,19.4603,VALID,355,VALID,0.594151,
2003-01-28, 00:10:00,VALID,917.964,VALID,0,VALID,98.7732,VALID,0,VALID,19.4538,VALID,354,VALID,0.341682,
2003-01-28, 00:11:00,VALID,917.962,VALID,0,VALID,98.8291,VALID,0,VALID,19.4506,VALID,357,VALID,0.31435,
2003-01-28, 00:12:00,VALID,917.989,VALID,0,VALID,98.899,VALID,-0.0169808,VALID,19.4675,VALID,2,VALID,0.182644,
2003-01-28, 00:13:00,VALID,917.989,VALID,0,VALID,98.9143,VALID,0,VALID,19.474,VALID,9,VALID,0.255804,
2003-01-28, 00:14:00,VALID,918.004,VALID,0,VALID,98.9054,VALID,0,VALID,19.4705,VALID,38,VALID,0.416602,
2003-01-28, 00:15:00,VALID,918.028,VALID,0,VALID,98.9308,VALID,0,VALID,19.4541,VALID,54,VALID,0.518527,
2003-01-28, 00:16:00,VALID,918.017,VALID,0,VALID,98.9677,VALID,0,VALID,19.4668,VALID,67,VALID,0.740119,
2003-01-28, 00:17:00,VALID,918.02,VALID,0,VALID,99.0059,VALID,0,VALID,19.4832,VALID,85,VALID,0.924137,
2003-01-28, 00:18:00,VALID,918.021,VALID,0,VALID,98.9931,VALID,-0.0169808,VALID,19.4802,VALID,105,VALID,1.0154,
2003-01-28, 00:19:00,VALID,918.017,VALID,0,VALID,99.0516,VALID,-0.0339617,VALID,19.4804,VALID,122,VALID,0.883482,
2003-01-28, 00:20:00,VALID,918.005,VALID,0,VALID,99.0326,VALID,-0.101885,VALID,19.4752,VALID,134,VALID,0.871995,
2003-01-28, 00:21:00,VALID,917.998,VALID,0,VALID,99.0008,VALID,-0.118866,VALID,19.4653,VALID,144,VALID,1.4568,
2003-01-28, 00:22:00,VALID,917.989,VALID,0,VALID,98.9486,VALID,-0.118866,VALID,19.4329,VALID,142,VALID,1.24799,
2003-01-28, 00:23:00,VALID,917.962,VALID,0,VALID,98.9232,VALID,-0.118866,VALID,19.4106,VALID,141,VALID,0.971289,
2003-01-28, 00:24:00,VALID,917.949,VALID,0,VALID,98.9626,VALID,-0.101885,VALID,19.3909,VALID,142,VALID,1.1625,
2003-01-28, 00:25:00,VALID,917.922,VALID,0,VALID,98.983,VALID,-0.101885,VALID,19.3618,VALID,147,VALID,1.10869,
2003-01-28, 00:26:00,VALID,917.912,VALID,0,VALID,99.0466,VALID,-0.101885,VALID,19.3487,VALID,152,VALID,1.34889,
2003-01-28, 00:27:00,VALID,917.875,VALID,0,VALID,99.0669,VALID,-0.101885,VALID,19.3524,VALID,147,VALID,1.30536,
2003-01-28, 00:28:00,VALID,917.843,VALID,0,VALID,99.0872,VALID,-0.101885,VALID,19.3362,VALID,141,VALID,1.34263,
2003-01-28, 00:29:00,VALID,917.828,VALID,0,VALID,99.1292,VALID,-0.101885,VALID,19.3298,VALID,137,VALID,1.23718,
2003-01-28, 00:30:00,VALID,917.806,VALID,0,VALID,99.1343,VALID,-0.101885,VALID,19.3101,VALID,146,VALID,1.28952,
2003-01-28, 00:31:00,VALID,917.801,VALID,0,VALID,99.1318,VALID,-0.101885,VALID,19.2843,VALID,149,VALID,1.25379,
2003-01-28, 00:32:00,VALID,917.779,VALID,0,VALID,99.1318,VALID,-0.101885,VALID,19.2681,VALID,141,VALID,1.06719,
2003-01-28, 00:33:00,VALID,917.755,VALID,0,VALID,99.1623,VALID,-0.101885,VALID,19.2388,VALID,134,VALID,0.849107,
2003-01-28, 00:34:00,VALID,917.734,VALID,0,VALID,99.2055,VALID,-0.0849042,VALID,19.2224,VALID,134,VALID,0.752757,
2003-01-28, 00:35:00,VALID,917.696,VALID,0,VALID,99.2297,VALID,-0.0169808,VALID,19.2115,VALID,128,VALID,0.492599,
2003-01-28, 00:36:00,VALID,917.658,VALID,0,VALID,99.264,VALID,-0.0169808,VALID,19.2154,VALID,130,VALID,0.419866,
2003-01-28, 00:37:00,VALID,917.629,VALID,0,VALID,99.3085,VALID,0,VALID,19.2184,VALID,130,VALID,0.816295,
2003-01-28, 00:38:00,VALID,917.597,VALID,0,VALID,99.3276,VALID,-0.0169808,VALID,19.2284,VALID,136,VALID,0.806891,
2003-01-28, 00:39:00,VALID,917.581,VALID,0,VALID,99.3632,VALID,-0.0169808,VALID,19.2346,VALID,122,VALID,0.801471,
2003-01-28, 00:40:00,VALID,917.575,VALID,0,VALID,99.3835,VALID,-0.0169808,VALID,19.2507,VALID,125,VALID,0.68125,
2003-01-28, 00:41:00,VALID,917.576,VALID,0,VALID,99.4242,VALID,-0.0339617,VALID,19.2768,VALID,115,VALID,0.729883,
2003-01-28, 00:42:00,VALID,917.572,VALID,0,VALID,99.4369,VALID,-0.0169808,VALID,19.2865,VALID,116,VALID,0.646652,
2003-01-28, 00:43:00,VALID,917.553,VALID,0,VALID,99.4458,VALID,-0.0339617,VALID,19.3092,VALID,99,VALID,0.410846,
2003-01-28, 00:44:00,VALID,917.531,VALID,0,VALID,99.4408,VALID,-0.0169808,VALID,19.3221,VALID,116,VALID,0.307566,
2003-01-28, 00:45:00,VALID,917.504,VALID,0,VALID,99.4382,VALID,-0.0169808,VALID,19.3221,VALID,135,VALID,0.666295,
2003-01-28, 00:46:00,VALID,917.5,VALID,0,VALID,99.4166,VALID,-0.0169808,VALID,19.3318,VALID,132,VALID,0.650223,
2003-01-28, 00:47:00,VALID,917.478,VALID,0,VALID,99.4179,VALID,-0.0169808,VALID,19.3355,VALID,126,VALID,0.791867,
2003-01-28, 00:48:00,VALID,917.485,VALID,0,VALID,99.3962,VALID,-0.0339617,VALID,19.3188,VALID,107,VALID,0.530331,
2003-01-28, 00:49:00,VALID,917.455,VALID,0,VALID,99.367,VALID,0,VALID,19.3151,VALID,104,VALID,0.756473,
2003-01-28, 00:50:00,VALID,917.429,VALID,0,VALID,99.3644,VALID,0.0339617,VALID,19.3146,VALID,122,VALID,0.838086,
2003-01-28, 00:51:00,VALID,917.395,VALID,0,VALID,99.3466,VALID,0.0169808,VALID,19.3345,VALID,141,VALID,0.827009,
2003-01-28, 00:52:00,VALID,917.352,VALID,0,VALID,99.325,VALID,0.0679233,VALID,19.3474,VALID,150,VALID,0.505974,
2003-01-28, 00:53:00,VALID,917.299,VALID,0,VALID,99.2704,VALID,0.0169808,VALID,19.3504,VALID,140,VALID,0.347245,
2003-01-28, 00:54:00,VALID,917.272,VALID,0,VALID,99.2233,VALID,0,VALID,19.3668,VALID,135,VALID,0.410045,
2003-01-28, 00:55:00,VALID,917.243,VALID,0,VALID,99.133,VALID,0.0679233,VALID,19.3731,VALID,139,VALID,0.517857,
2003-01-28, 00:56:00,VALID,917.22,VALID,0,VALID,99.0605,VALID,0,VALID,19.3671,VALID,148,VALID,0.377204,
2003-01-28, 00:57:00,VALID,917.191,VALID,0,VALID,98.9906,VALID,0,VALID,19.3701,VALID,154,VALID,0.565028,
2003-01-28, 00:58:00,VALID,917.153,VALID,0,VALID,98.9067,VALID,0.0509425,VALID,19.376,VALID,183,VALID,0.509375,
2003-01-28, 00:59:00,VALID,917.14,VALID,0,VALID,98.8355,VALID,0,VALID,19.3962,VALID,218,VALID,0.00996094,
2003-01-28, 01:00:00,VALID,917.142,VALID,0,VALID,98.7655,VALID,0,VALID,19.3962,VALID,181,VALID,0.103348,
2003-01-28, 01:01:00,VALID,917.146,VALID,0,VALID,98.6702,VALID,-0.0169808,VALID,19.3954,VALID,110,VALID,0.087546,
2003-01-28, 01:02:00,VALID,917.143,VALID,0,VALID,98.5608,VALID,0,VALID,19.4088,VALID,109,VALID,0.00123355,
2003-01-28, 01:03:00,VALID,917.141,VALID,0,VALID,98.4375,VALID,0,VALID,19.3959,VALID,114,VALID,0.453795,
2003-01-28, 01:04:00,VALID,917.123,VALID,0,VALID,98.3039,VALID,0.0339617,VALID,19.3927,VALID,129,VALID,0.575223,
2003-01-28, 01:05:00,VALID,917.113,VALID,0,VALID,98.2073,VALID,0.0339617,VALID,19.3895,VALID,106,VALID,0.486579,
2003-01-28, 01:06:00,VALID,917.108,VALID,0,VALID,98.1386,VALID,0.0169808,VALID,19.3825,VALID,107,VALID,0.69761,
2003-01-28, 01:07:00,VALID,917.101,VALID,0,VALID,98.0674,VALID,0.0169808,VALID,19.3897,VALID,107,VALID,0.622321,
2003-01-28, 01:08:00,VALID,917.091,VALID,0,VALID,98.0509,VALID,0,VALID,19.3989,VALID,120,VALID,0.770117,
2003-01-28, 01:09:00,VALID,917.087,VALID,0,VALID,97.9212,VALID,0.0849042,VALID,19.4118,VALID,82,VALID,0.428571,
2003-01-28, 01:10:00,VALID,917.097,VALID,0,VALID,97.8551,VALID,0.0509425,VALID,19.4116,VALID,67,VALID,0.549862,
2003-01-28, 01:11:00,VALID,917.101,VALID,0,VALID,97.733,VALID,0.0339617,VALID,19.4118,VALID,40,VALID,0.311678,
2003-01-28, 01:12:00,VALID,917.092,VALID,0,VALID,97.6071,VALID,0.0509425,VALID,19.3982,VALID,19,VALID,0.41317,
2003-01-28, 01:13:00,VALID,917.087,VALID,0,VALID,97.4812,VALID,0.0679233,VALID,19.3992,VALID,19,VALID,0.284821,
2003-01-28, 01:14:00,VALID,917.092,VALID,0,VALID,97.3261,VALID,0.0339617,VALID,19.3823,VALID,42,VALID,0.305889,
2003-01-28, 01:15:00,VALID,917.094,VALID,0,VALID,97.1989,VALID,0.0679233,VALID,19.3601,VALID,26,VALID,0.288373,
2003-01-28, 01:16:00,VALID,917.086,VALID,0,VALID,97.1264,VALID,0.0169808,VALID,19.3407,VALID,22,VALID,0.549107,
2003-01-28, 01:17:00,VALID,917.076,VALID,0,VALID,97.0552,VALID,0.0169808,VALID,19.3315,VALID,13,VALID,0.79668,
2003-01-28, 01:18:00,VALID,917.069,VALID,0,VALID,97.0616,VALID,0.0339617,VALID,19.3117,VALID,17,VALID,1.18125,
2003-01-28, 01:19:00,VALID,917.08,VALID,0,VALID,97.0514,VALID,0,VALID,19.2706,VALID,20,VALID,0.779642,
2003-01-28, 01:20:00,VALID,917.106,VALID,0,VALID,97.4329,VALID,-0.0849042,VALID,19.2706,VALID,11,VALID,0.765419,
2003-01-28, 01:21:00,VALID,917.106,VALID,0,VALID,97.5842,VALID,-0.0849042,VALID,19.3265,VALID,8,VALID,0.412946,
2003-01-28, 01:22:00,VALID,917.115,VALID,0,VALID,97.6236,VALID,-0.0679233,VALID,19.3293,VALID,2,VALID,0.482366,
2003-01-28, 01:23:00,VALID,917.136,VALID,0,VALID,97.6503,VALID,-0.0679233,VALID,19.3521,VALID,353,VALID,0.425481,
2003-01-28, 01:24:00,VALID,917.14,VALID,0,VALID,97.5651,VALID,-0.0849042,VALID,19.3683,VALID,341,VALID,0.564108,
2003-01-28, 01:25:00,VALID,917.13,VALID,0,VALID,97.6058,VALID,-0.0679233,VALID,19.3847,VALID,321,VALID,0.659821,
2003-01-28, 01:26:00,VALID,917.122,VALID,0,VALID,97.6643,VALID,-0.0849042,VALID,19.3949,VALID,314,VALID,0.228516,
2003-01-28, 01:27:00,VALID,917.112,VALID,0,VALID,97.6351,VALID,-0.101885,VALID,19.3912,VALID,313,VALID,0.30625,
2003-01-28, 01:28:00,VALID,917.102,VALID,0,VALID,97.6465,VALID,-0.101885,VALID,19.3782,VALID,281,VALID,0.37477,
2003-01-28, 01:29:00,VALID,917.079,VALID,0,VALID,97.6961,VALID,-0.101885,VALID,19.3718,VALID,249,VALID,0.423931,
2003-01-28, 01:30:00,VALID,917.068,VALID,0,VALID,97.7724,VALID,-0.0849042,VALID,19.3524,VALID,242,VALID,0.102679,
2003-01-28, 01:31:00,VALID,917.081,VALID,0,VALID,97.7076,VALID,-0.0849042,VALID,19.3459,VALID,122,VALID,0.328348,
2003-01-28, 01:32:00,VALID,917.085,VALID,0,VALID,97.6338,VALID,-0.0849042,VALID,19.294,VALID,94,VALID,0.611779,
2003-01-28, 01:33:00,VALID,917.089,VALID,0,VALID,97.8843,VALID,-0.0679233,VALID,19.2945,VALID,98,VALID,0.745175,
2003-01-28, 01:34:00,VALID,917.097,VALID,0,VALID,97.883,VALID,-0.0679233,VALID,19.2972,VALID,99,VALID,0.786161,
2003-01-28, 01:35:00,VALID,917.075,VALID,0,VALID,98.0725,VALID,0.0169808,VALID,19.2796,VALID,96,VALID,0.808008,
2003-01-28, 01:36:00,VALID,917.066,VALID,0,VALID,98.1793,VALID,0.0339617,VALID,19.3092,VALID,108,VALID,0.496875,
2003-01-28, 01:37:00,VALID,917.046,VALID,0,VALID,98.0852,VALID,0.0339617,VALID,19.3186,VALID,109,VALID,0.338006,
2003-01-28, 01:38:00,VALID,917.037,VALID,0,VALID,98.0382,VALID,-0.0169808,VALID,19.3188,VALID,109,VALID,0.353413,
2003-01-28, 01:39:00,VALID,917.025,VALID,0,VALID,98.0649,VALID,0,VALID,19.3313,VALID,109,VALID,0.0631696,
2003-01-28, 01:40:00,VALID,917.013,VALID,0,VALID,97.8385,VALID,0,VALID,19.3181,VALID,36,VALID,0.297098,
2003-01-28, 01:41:00,VALID,916.999,VALID,0,VALID,97.5295,VALID,0,VALID,19.247,VALID,34,VALID,0.111378,
2003-01-28, 01:42:00,VALID,917.011,VALID,0,VALID,97.644,VALID,0,VALID,19.2535,VALID,34,VALID,0,
2003-01-28, 01:43:00,VALID,917.012,VALID,0,VALID,97.7292,VALID,0.0169808,VALID,19.2699,VALID,34,VALID,0,
2003-01-28, 01:44:00,VALID,917.028,VALID,0,VALID,97.6643,VALID,0,VALID,19.2796,VALID,34,VALID,0.00117188,
2003-01-28, 01:45:00,VALID,917.044,VALID,0,VALID,97.5779,VALID,0,VALID,19.2701,VALID,34,VALID,0.0517857,
2003-01-28, 01:46:00,VALID,917.029,VALID,0,VALID,97.5766,VALID,0,VALID,19.2731,VALID,34,VALID,0.133502,
2003-01-28, 01:47:00,VALID,917.037,VALID,0,VALID,97.6974,VALID,0.0169808,VALID,19.2863,VALID,34,VALID,0,
2003-01-28, 01:48:00,VALID,917.054,VALID,0,VALID,97.7419,VALID,0.0169808,VALID,19.3121,VALID,34,VALID,0,
2003-01-28, 01:49:00,VALID,917.053,VALID,0,VALID,97.7139,VALID,0.0169808,VALID,19.3285,VALID,34,VALID,0,
2003-01-28, 01:50:00,VALID,917.065,VALID,0,VALID,97.7165,VALID,0.0169808,VALID,19.3417,VALID,40,VALID,0.0442708,
2003-01-28, 01:51:00,VALID,917.039,VALID,0,VALID,97.6898,VALID,0,VALID,19.3579,VALID,126,VALID,0.451976,
2003-01-28, 01:52:00,VALID,917.014,VALID,0,VALID,97.6923,VALID,0,VALID,19.3609,VALID,145,VALID,0.698884,
2003-01-28, 01:53:00,VALID,916.986,VALID,0,VALID,97.7393,VALID,0,VALID,19.387,VALID,150,VALID,0.654492,
2003-01-28, 01:54:00,VALID,916.956,VALID,0,VALID,97.7851,VALID,0.0169808,VALID,19.4158,VALID,151,VALID,0.578795,
2003-01-28, 01:55:00,VALID,916.932,VALID,0,VALID,97.7775,VALID,0.0169808,VALID,19.4543,VALID,152,VALID,0.155331,
2003-01-28, 01:56:00,VALID,916.92,VALID,0,VALID,97.7419,VALID,0.0169808,VALID,19.4901,VALID,136,VALID,0.115748,
2003-01-28, 01:57:00,VALID,916.915,VALID,0,VALID,97.4939,VALID,0,VALID,19.4998,VALID,76,VALID,0.497321,
2003-01-28, 01:58:00,VALID,916.925,VALID,0,VALID,97.2294,VALID,0,VALID,19.4904,VALID,37,VALID,0.383705,
2003-01-28, 01:59:00,VALID,916.935,VALID,0,VALID,97.1938,VALID,0.0169808,VALID,19.4737,VALID,37,VALID,0.193309,
2003-01-28, 02:00:00,VALID,916.919,VALID,0,VALID,97.2701,VALID,0.0169808,VALID,19.4966,VALID,37,VALID,0.042739,
2003-01-28, 02:01:00,VALID,916.893,VALID,0,VALID,97.2727,VALID,0,VALID,19.5026,VALID,37,VALID,0.124554,
2003-01-28, 02:02:00,VALID,916.881,VALID,0,VALID,97.265,VALID,0.0679233,VALID,19.5321,VALID,37,VALID,0,
2003-01-28, 02:03:00,VALID,916.839,VALID,0,VALID,97.2828,VALID,0.0169808,VALID,19.5543,VALID,61,VALID,0.227232,
2003-01-28, 02:04:00,VALID,916.823,VALID,0,VALID,97.2154,VALID,0.0509425,VALID,19.5771,VALID,76,VALID,0.206112,
2003-01-28, 02:05:00,VALID,916.785,VALID,0,VALID,97.1519,VALID,-0.0509425,VALID,19.6139,VALID,76,VALID,0,
2003-01-28, 02:06:00,VALID,916.773,VALID,0,VALID,97.1862,VALID,-0.0849042,VALID,19.646,VALID,76,VALID,0,
2003-01-28, 02:07:00,VALID,916.754,VALID,0,VALID,97.1722,VALID,-0.0339617,VALID,19.6915,VALID,76,VALID,0,
2003-01-28, 02:08:00,VALID,916.76,VALID,0,VALID,96.7449,VALID,-0.0679233,VALID,19.7042,VALID,76,VALID,0.221354,
2003-01-28, 02:09:00,VALID,916.781,VALID,0,VALID,96.6051,VALID,-0.0679233,VALID,19.698,VALID,51,VALID,0.286075,
2003-01-28, 02:10:00,VALID,916.801,VALID,0,VALID,96.5059,VALID,-0.0679233,VALID,19.685,VALID,25,VALID,0.412277,
2003-01-28, 02:11:00,VALID,916.808,VALID,0,VALID,96.5021,VALID,0,VALID,19.6624,VALID,25,VALID,0.297266,
2003-01-28, 02:12:00,VALID,916.815,VALID,0,VALID,96.6381,VALID,-0.0849042,VALID,19.6686,VALID,25,VALID,0,
2003-01-28, 02:13:00,VALID,916.81,VALID,0,VALID,96.7284,VALID,-0.0339617,VALID,19.6915,VALID,25,VALID,0,
2003-01-28, 02:14:00,VALID,916.823,VALID,0,VALID,96.7627,VALID,-0.0509425,VALID,19.6977,VALID,25,VALID,0,
2003-01-28, 02:15:00,VALID,916.839,VALID,0,VALID,96.8098,VALID,-0.0679233,VALID,19.7179,VALID,25,VALID,0,
2003-01-28, 02:16:00,VALID,916.852,VALID,0,VALID,96.7767,VALID,-0.0509425,VALID,19.7268,VALID,25,VALID,0,
2003-01-28, 02:17:00,VALID,916.836,VALID,0,VALID,96.8912,VALID,-0.0849042,VALID,19.7497,VALID,25,VALID,0,
2003-01-28, 02:18:00,VALID,916.837,VALID,0,VALID,96.7831,VALID,-0.0679233,VALID,19.7651,VALID,25,VALID,0,
2003-01-28, 02:19:00,VALID,916.834,VALID,0,VALID,96.7717,VALID,-0.0679233,VALID,19.7882,VALID,25,VALID,0.287723,
2003-01-28, 02:20:00,VALID,916.832,VALID,0,VALID,96.7462,VALID,-0.0849042,VALID,19.8044,VALID,73,VALID,0.333008,
2003-01-28, 02:21:00,VALID,916.826,VALID,0,VALID,96.8174,VALID,-0.0509425,VALID,19.834,VALID,186,VALID,0.468527,
2003-01-28, 02:22:00,VALID,916.814,VALID,0,VALID,96.7767,VALID,-0.0339617,VALID,19.8402,VALID,168,VALID,0.576976,
2003-01-28, 02:23:00,VALID,916.832,VALID,0,VALID,96.7475,VALID,-0.0509425,VALID,19.8369,VALID,170,VALID,0.488076,
2003-01-28, 02:24:00,VALID,916.838,VALID,0,VALID,96.7589,VALID,-0.0679233,VALID,19.8402,VALID,161,VALID,0.561384,
2003-01-28, 02:25:00,VALID,916.854,VALID,0,VALID,96.7462,VALID,-0.0679233,VALID,19.8402,VALID,183,VALID,0.296652,
2003-01-28, 02:26:00,VALID,916.858,VALID,0,VALID,96.703,VALID,-0.0679233,VALID,19.8203,VALID,148,VALID,0.253405,
2003-01-28, 02:27:00,VALID,916.87,VALID,0,VALID,96.7831,VALID,-0.0849042,VALID,19.8171,VALID,147,VALID,0.0273438,
2003-01-28, 02:28:00,VALID,916.878,VALID,0,VALID,96.9103,VALID,-0.0679233,VALID,19.8143,VALID,147,VALID,0.0165179,
2003-01-28, 02:29:00,VALID,916.879,VALID,0,VALID,96.909,VALID,-0.0509425,VALID,19.8235,VALID,186,VALID,0.294141,
2003-01-28, 02:30:00,VALID,916.874,VALID,0,VALID,96.9141,VALID,-0.0679233,VALID,19.8335,VALID,165,VALID,0.602902,
2003-01-28, 02:31:00,VALID,916.863,VALID,0,VALID,96.8416,VALID,-0.0679233,VALID,19.8367,VALID,177,VALID,0.617188,
2003-01-28, 02:32:00,VALID,916.849,VALID,0,VALID,96.778,VALID,-0.0849042,VALID,19.8402,VALID,195,VALID,0.156044,
2003-01-28, 02:33:00,VALID,916.861,VALID,0,VALID,96.7818,VALID,-0.0339617,VALID,19.8529,VALID,194,VALID,0.110714,
2003-01-28, 02:34:00,VALID,916.869,VALID,0,VALID,96.7729,VALID,-0.0169808,VALID,19.8531,VALID,173,VALID,0.583259,
2003-01-28, 02:35:00,VALID,916.876,VALID,0,VALID,96.7132,VALID,-0.0509425,VALID,19.8429,VALID,164,VALID,0.622396,
2003-01-28, 02:36:00,VALID,916.891,VALID,0,VALID,96.7182,VALID,-0.0679233,VALID,19.8404,VALID,157,VALID,0.619485,
2003-01-28, 02:37:00,VALID,916.896,VALID,0,VALID,96.736,VALID,-0.101885,VALID,19.827,VALID,152,VALID,0.33817,
2003-01-28, 02:38:00,VALID,916.897,VALID,0,VALID,96.7958,VALID,-0.0679233,VALID,19.8402,VALID,164,VALID,0.3375,
2003-01-28, 02:39:00,VALID,916.88,VALID,0,VALID,96.834,VALID,-0.0339617,VALID,19.8267,VALID,167,VALID,0.337723,
2003-01-28, 02:40:00,VALID,916.877,VALID,0,VALID,96.8645,VALID,-0.0339617,VALID,19.8233,VALID,167,VALID,0.225414,
2003-01-28, 02:41:00,VALID,916.856,VALID,0,VALID,96.9268,VALID,-0.0509425,VALID,19.833,VALID,167,VALID,0.0620888,
2003-01-28, 02:42:00,VALID,916.851,VALID,0,VALID,96.942,VALID,-0.0679233,VALID,19.8295,VALID,159,VALID,0.107589,
2003-01-28, 02:43:00,VALID,916.836,VALID,0,VALID,96.8683,VALID,-0.0509425,VALID,19.823,VALID,131,VALID,0.330134,
2003-01-28, 02:44:00,VALID,916.834,VALID,0,VALID,96.9649,VALID,-0.0509425,VALID,19.8103,VALID,114,VALID,0.166667,
2003-01-28, 02:45:00,VALID,916.806,VALID,0,VALID,97.1557,VALID,-0.0509425,VALID,19.8205,VALID,114,VALID,0.0496324,
2003-01-28, 02:46:00,VALID,916.791,VALID,0,VALID,97.265,VALID,-0.0169808,VALID,19.8332,VALID,114,VALID,0.0448661,
2003-01-28, 02:47:00,VALID,916.786,VALID,0,VALID,97.3172,VALID,-0.0509425,VALID,19.8367,VALID,119,VALID,0.234961,
2003-01-28, 02:48:00,VALID,916.775,VALID,0,VALID,97.3668,VALID,-0.0509425,VALID,19.833,VALID,141,VALID,0.803795,
2003-01-28, 02:49:00,VALID,916.774,VALID,0,VALID,97.307,VALID,-0.0339617,VALID,19.8392,VALID,148,VALID,0.883502,
2003-01-28, 02:50:00,VALID,916.754,VALID,0,VALID,97.3515,VALID,0.0169808,VALID,19.8409,VALID,149,VALID,0.76028,
2003-01-28, 02:51:00,VALID,916.768,VALID,0,VALID,97.3718,VALID,0.0339617,VALID,19.8742,VALID,148,VALID,0.685045,
2003-01-28, 02:52:00,VALID,916.76,VALID,0,VALID,97.3973,VALID,0.0169808,VALID,19.8867,VALID,148,VALID,0.701786,
2003-01-28, 02:53:00,VALID,916.754,VALID,0,VALID,97.3884,VALID,0.0339617,VALID,19.9192,VALID,124,VALID,0.532051,
2003-01-28, 02:54:00,VALID,916.764,VALID,0,VALID,97.3909,VALID,0,VALID,19.9508,VALID,127,VALID,0.572381,
2003-01-28, 02:55:00,VALID,916.763,VALID,0,VALID,97.2752,VALID,0,VALID,19.9707,VALID,124,VALID,0.86317,
2003-01-28, 02:56:00,VALID,916.754,VALID,0,VALID,97.1061,VALID,0,VALID,20.0164,VALID,132,VALID,0.731641,
2003-01-28, 02:57:00,VALID,916.742,VALID,0,VALID,96.8568,VALID,0.0169808,VALID,20.0644,VALID,151,VALID,0.507143,
2003-01-28, 02:58:00,VALID,916.724,VALID,0,VALID,96.6356,VALID,0.0169808,VALID,20.0973,VALID,140,VALID,0.745404,
2003-01-28, 02:59:00,VALID,916.701,VALID,0,VALID,96.3571,VALID,0.0169808,VALID,20.1229,VALID,128,VALID,0.915913,
2003-01-28, 03:00:00,VALID,916.688,VALID,0,VALID,96.188,VALID,0.0169808,VALID,20.1549,VALID,124,VALID,0.677009,
2003-01-28, 03:01:00,VALID,916.691,VALID,0,VALID,96.0227,VALID,0,VALID,20.1743,VALID,118,VALID,0.564286,
2003-01-28, 03:02:00,VALID,916.679,VALID,0,VALID,95.8141,VALID,0.0169808,VALID,20.184,VALID,106,VALID,0.911659,
2003-01-28, 03:03:00,VALID,916.671,VALID,0,VALID,95.6895,VALID,0.0339617,VALID,20.2004,VALID,116,VALID,0.537454,
2003-01-28, 03:04:00,VALID,916.659,VALID,0,VALID,95.5662,VALID,-0.0169808,VALID,20.2002,VALID,140,VALID,0.572991,
2003-01-28, 03:05:00,VALID,916.645,VALID,0,VALID,95.4606,VALID,-0.0509425,VALID,20.2246,VALID,117,VALID,0.901953,
2003-01-28, 03:06:00,VALID,916.637,VALID,0,VALID,95.4212,VALID,-0.101885,VALID,20.2179,VALID,128,VALID,1.37679,
2003-01-28, 03:07:00,VALID,916.619,VALID,0,VALID,95.4059,VALID,-0.0509425,VALID,20.2012,VALID,131,VALID,0.917279,
2003-01-28, 03:08:00,VALID,916.624,VALID,0,VALID,95.4479,VALID,-0.0679233,VALID,20.195,VALID,93,VALID,0.574219,
2003-01-28, 03:09:00,VALID,916.619,VALID,0,VALID,95.4848,VALID,-0.0679233,VALID,20.1985,VALID,107,VALID,0.911384,
2003-01-28, 03:10:00,VALID,916.621,VALID,0,VALID,95.4962,VALID,-0.0849042,VALID,20.1826,VALID,90,VALID,1.10045,
2003-01-28, 03:11:00,VALID,916.623,VALID,0,VALID,95.5433,VALID,-0.0849042,VALID,20.153,VALID,95,VALID,1.05268,
2003-01-28, 03:12:00,VALID,916.627,VALID,0,VALID,95.6208,VALID,-0.101885,VALID,20.1468,VALID,95,VALID,0.738511,
2003-01-28, 03:13:00,VALID,916.644,VALID,0,VALID,95.6743,VALID,-0.0849042,VALID,20.1236,VALID,118,VALID,0.514063,
2003-01-28, 03:14:00,VALID,916.65,VALID,0,VALID,95.7569,VALID,-0.101885,VALID,20.1274,VALID,83,VALID,0.579102,
2003-01-28, 03:15:00,VALID,916.651,VALID,0,VALID,95.7633,VALID,-0.0849042,VALID,20.1107,VALID,111,VALID,0.889063,
2003-01-28, 03:16:00,VALID,916.647,VALID,0,VALID,95.7353,VALID,-0.0679233,VALID,20.1211,VALID,84,VALID,0.747932,
2003-01-28, 03:17:00,VALID,916.633,VALID,0,VALID,95.6654,VALID,-0.0679233,VALID,20.1311,VALID,88,VALID,0.510485,
2003-01-28, 03:18:00,VALID,916.625,VALID,0,VALID,95.5051,VALID,-0.101885,VALID,20.1271,VALID,133,VALID,0.888393,
2003-01-28, 03:19:00,VALID,916.595,VALID,0,VALID,95.4288,VALID,-0.0679233,VALID,20.1433,VALID,100,VALID,0.376339,
2003-01-28, 03:20:00,VALID,916.579,VALID,0,VALID,95.4047,VALID,0,VALID,20.1584,VALID,66,VALID,0.133013,
2003-01-28, 03:21:00,VALID,916.566,VALID,0,VALID,95.4899,VALID,0.0339617,VALID,20.1614,VALID,72,VALID,0.295956,
2003-01-28, 03:22:00,VALID,916.565,VALID,0,VALID,95.4632,VALID,0.0169808,VALID,20.148,VALID,112,VALID,0.258705,
2003-01-28, 03:23:00,VALID,916.569,VALID,0,VALID,95.5382,VALID,0.0169808,VALID,20.1577,VALID,36,VALID,0.375391,
2003-01-28, 03:24:00,VALID,916.576,VALID,0,VALID,95.4886,VALID,0,VALID,20.1358,VALID,35,VALID,0.391518,
2003-01-28, 03:25:00,VALID,916.594,VALID,0,VALID,95.5077,VALID,0.0169808,VALID,20.0935,VALID,35,VALID,0.446232,
2003-01-28, 03:26:00,VALID,916.608,VALID,0,VALID,95.6717,VALID,0.0169808,VALID,20.055,VALID,35,VALID,0.153577,
2003-01-28, 03:27:00,VALID,916.612,VALID,0,VALID,95.7862,VALID,0.0169808,VALID,20.0154,VALID,55,VALID,0.26808,
2003-01-28, 03:28:00,VALID,916.613,VALID,0,VALID,95.6196,VALID,0.0679233,VALID,19.9866,VALID,115,VALID,0.579464,
2003-01-28, 03:29:00,VALID,916.618,VALID,0,VALID,95.5535,VALID,0.0509425,VALID,19.9707,VALID,129,VALID,0.921074,
2003-01-28, 03:30:00,VALID,916.626,VALID,0,VALID,95.4021,VALID,0.0679233,VALID,19.9702,VALID,155,VALID,0.886029,
2003-01-28, 03:31:00,VALID,916.614,VALID,0,VALID,95.3335,VALID,0.0509425,VALID,19.9933,VALID,111,VALID,0.272098,
2003-01-28, 03:32:00,VALID,916.613,VALID,0,VALID,95.3284,VALID,0.0169808,VALID,19.9863,VALID,141,VALID,0.271875,